Location: Stonelick Lake State Park
(39.2170°N, 84.0850°W)
Time: 10:09:56
(UTC-04:00)

Daily predictions for brighter satellites

Satellite Brightness Start Highest point End
(mag) Time Altitude Azimuth Time Altitude Azimuth Time Altitude Azimuth
Okean 2 3.7 21:15:43 10° SSE 21:19:44 48° E 21:23:46 10° NNE
Cosmos 1892 Rocket 3.6 21:16:10 10° S 21:20:34 75° E 21:25:04 10° N
GEOS 3 Rocket 3.7 21:15:50 10° SE 21:21:05 79° NE 21:26:20 10° NNW
Aureole 2 Rocket 2.8 21:21:17 10° S 21:25:08 51° ESE 21:28:41 10° NNE
Cosmos 1331 Rocket 4.0 21:21:17 10° NNW 21:26:31 84° ENE 21:31:41 10° SSE
SeaSat 1 3.8 21:25:20 10° ESE 21:29:24 26° NE 21:33:28 10° N
Cosmos 2237 Rocket 4.4 21:31:02 10° WSW 21:35:59 31° WNW 21:40:59 10° N
USA 186 2.7 21:34:29 10° S 21:37:14 41° W 21:39:49 10° NNW
Cosmos 1302 Rocket 4.1 21:32:15 10° NNW 21:37:27 62° ENE 21:42:38 10° SSE
CZ-2C R/B 0.3 21:36:50 10° SSE 21:39:07 88° ESE 21:41:26 10° NNW
DEBRIS 3.0 21:37:25 10° NW 21:43:36 63° NNE 21:45:47 13° ESE
Cosmos 1726 Rocket 4.2 21:40:00 10° NNW 21:44:22 59° W 21:48:41 10° S
Cosmos 2278 Rocket 3.9 21:40:01 10° NW 21:44:53 30° WSW 21:49:44 10° SSW
Cosmos 1461 3.2 21:42:02 10° NNW 21:46:17 55° NE 21:49:44 14° SE
ATLAS 3B R/B 3.8 21:43:19 10° SSE 21:49:26 27° ESE 21:55:29 10° NE
SJ-11-01 4.3 21:45:20 10° SSE 21:49:59 85° E 21:54:41 10° NNW
Tsikada Rocket 4.2 21:45:24 10° SSE 21:51:35 53° E 21:57:46 10° NNE
Cosmos 2369 Rocket 3.6 21:53:11 10° N 21:57:43 24° NE 22:01:39 12° ESE
Cosmos 2058 Rocket 3.9 21:56:32 10° NNW 22:00:46 50° W 22:04:58 10° SSW
Cosmos 1666 2.9 21:57:59 10° N 22:01:54 77° W 22:05:46 10° S
APEX 3.9 21:57:56 10° NNW 22:02:08 73° WSW 22:07:16 12° SSE
Cosmos 2285 Rocket 4.5 21:56:52 10° NNW 22:03:05 62° WSW 22:09:20 10° S
ERS-1 Rocket 3.4 21:58:15 10° S 22:03:13 64° WSW 22:08:14 10° NNW
Cosmos 1602 Rocket 3.5 21:58:49 10° S 22:03:17 79° E 22:07:46 10° N
Abrixas rocket 2.8 22:00:50 10° WNW 22:04:10 49° SW 22:06:15 20° SSE
SL-16 R/B 3.7 21:59:09 10° SW 22:04:27 40° WNW 22:09:46 10° N
Atlas Centaur 2 3.4 21:58:41 10° SW 22:05:31 40° SSE 22:12:42 12° ESE
Meteor 1-15 Rocket 4.4 22:01:11 10° NNW 22:06:46 74° W 22:12:24 10° S
USA 234 3.9 22:01:10 11° ESE 22:07:13 48° NNE 22:13:27 10° NW
Envisat 3.0 22:05:31 13° SSE 22:10:03 76° ENE 22:15:08 10° N
MetOp-B 4.4 22:06:59 17° SE 22:11:01 52° ENE 22:16:12 10° N
Cosmos 1464 Rocket 4.4 22:05:25 10° NNW 22:11:28 63° W 22:17:32 10° S
ISS -3.5 22:11:53 10° SW 22:15:08 71° SE 22:18:23 10° NE
Cosmos 1812 Rocket 3.6 22:10:47 10° N 22:15:09 65° E 22:18:11 19° SSE
PSLV R/B 3.3 22:16:12 10° WSW 22:19:45 87° NNW 22:22:59 12° ENE
Cosmos 1939 Rocket 3.4 22:16:38 12° S 22:20:25 61° W 22:24:33 10° NNW
GRACE-1 4.2 22:19:51 10° N 22:22:43 66° W 22:24:31 20° SSW
GRACE-2 4.2 22:20:18 10° N 22:23:09 66° W 22:24:55 20° SSW
Cosmos 1816 Rocket 4.5 22:19:38 10° S 22:25:59 77° E 22:32:19 10° N
H-2A R/B 3.3 22:22:54 10° SSW 22:26:50 37° W 22:30:53 10° NNW
SPOT 5 2.6 22:24:58 19° S 22:28:10 80° WSW 22:32:30 10° NNW
COSMOS 2455 2.8 22:24:10 10° SSW 22:30:10 88° ESE 22:36:13 10° NNE
Cosmos 1515 3.6 22:28:51 23° S 22:31:08 69° E 22:34:59 10° NNE
Cosmos 1634 Rocket 4.3 22:25:08 10° N 22:31:08 51° E 22:34:40 24° SE
USA 245 4.4 22:28:23 22° SSE 22:32:14 61° ENE 22:37:23 10° N
Cosmos 1603 4.2 22:27:52 10° SW 22:33:24 60° WNW 22:38:58 10° NNE
CZ-4 SHROUD 4.0 22:31:44 22° SSW 22:33:30 48° W 22:36:35 10° NNW
Cosmos 1066 Rocket 4.4 22:30:02 20° SSE 22:33:50 54° E 22:39:27 10° NNE
USA 81 4.2 22:29:46 10° N 22:34:58 55° E 22:37:42 27° SSE
BREEZE-M DEB (TANK) 3.4 22:33:25 10° WNW 22:35:16 22° SW 22:35:27 22° SW
YAOGAN 6 2.6 22:39:45 37° SSE 22:41:05 75° ENE 22:44:50 10° N
Terra 3.1 22:43:54 22° E 22:45:20 25° ENE 22:49:13 10° NNE
Meteor 2-12 Rocket 4.4 22:39:16 10° N 22:45:22 83° W 22:49:33 21° S
Cosmos 1992 Rocket 3.9 22:42:50 10° NNW 22:48:05 81° ENE 22:50:30 33° SSE
Cosmos 1346 Rocket 2.9 22:48:51 45° SE 22:49:36 53° E 22:53:26 10° NNE
Cosmos 1953 Rocket 3.5 22:52:36 39° SSE 22:54:05 65° E 22:58:29 10° NNE
Cosmos 2279 Rocket 4.4 22:48:31 10° N 22:54:30 45° ENE 22:56:57 31° SE
Cosmos 1943 3.1 22:51:09 10° SSW 22:56:49 87° ESE 23:02:33 10° NNE
H-2A R/B 2.7 22:57:40 31° ESE 22:59:05 38° ENE 23:03:44 10° N
Cosmos 2346 Rocket 4.4 22:56:16 19° S 23:00:53 87° W 23:07:04 10° N
Cosmos 1943 Rocket 3.3 22:57:56 10° N 23:02:49 30° ENE 23:04:49 24° E
Cosmos 1842 4.2 23:04:01 32° ENE 23:04:01 32° ENE 23:07:10 10° NNE
Lacrosse 4 Rocket 1.1 23:03:03 51° S 23:03:54 71° ESE 23:07:59 10° NNE
Geosat 3.9 22:59:25 10° NNE 23:04:26 64° ESE 23:06:36 33° S
SAR-Lupe-2 4.4 23:05:25 37° ENE 23:05:25 37° ENE 23:08:42 10° N
Meteor 1-21 4.3 23:03:33 36° SSE 23:05:47 59° E 23:11:30 10° NNE
SeaSat 1 3.3 23:04:19 25° SSW 23:06:43 41° WSW 23:11:23 10° NW
Cosmos 1190 Rocket 4.0 23:03:10 19° SSW 23:07:01 86° WNW 23:12:22 10° NNE
SPOT 1/Viking Rocket 3.8 23:05:20 31° S 23:07:48 65° WSW 23:12:56 10° NNW
Cosmos 1900 4.3 23:07:02 31° S 23:09:26 67° ESE 23:14:33 10° NE
Cosmos-2242 3.8 23:07:19 10° N 23:11:23 35° ENE 23:11:38 35° E
Cosmos 676 Rocket 3.9 23:21:47 42° S 23:23:38 80° ESE 23:28:59 10° NNE
DELTA 2 DEB (DPAF) 4.2 23:22:58 54° SSW 23:23:54 73° WSW 23:28:25 10° NNW
DMSP B5D2-2 4.1 23:20:08 10° NNE 23:25:21 59° E 23:26:13 52° SE
Cosmos 1766 3.1 23:22:24 10° N 23:26:26 86° E 23:26:30 85° ESE
Cosmos 1758 Rocket 3.8 23:27:02 44° SW 23:28:14 64° W 23:32:35 10° N
Cosmos 1140 Rocket 4.0 23:28:55 41° E 23:28:55 41° E 23:33:40 10° NNE
CARTOSAT-1 3.4 23:31:25 75° ESE 23:31:40 80° ENE 23:36:01 10° N
ARGOS 3.9 23:33:16 32° SSW 23:35:22 47° W 23:40:36 10° NNW
ATLAS 3B R/B 3.2 23:32:00 10° SW 23:39:40 67° NW 23:47:12 10° NNE
Cosmos 2369 Rocket 2.7 23:36:34 10° NW 23:42:00 49° WSW 23:43:27 39° SSW
CZ-4C R/B 4.5 23:46:15 36° WSW 23:46:41 38° W 23:50:32 10° NNW
USA 234 3.6 23:48:30 43° S 23:50:08 52° SW 23:56:31 10° NW
ISS -0.4 23:49:28 10° WNW 23:51:52 19° NNW 23:54:16 10° NNE
SL-27 R/B 4.1 23:54:51 31° N 23:54:51 31° N 23:56:44 10° NNE
